ASTEX 1

Last updated on Sun Dec 14 2025 00:02:15 GMT+0000 (Coordinated Universal Time)

1 05560U 71089A 25347.32579222 .00000930 00000+0 23695-3 0 9993 2 05560 92.7139 123.8086 0016344 24.0800 336.1167 14.50644081849785
UTC large
Height (km)
Speed (km/s)
/
Latitude / Longitude
Inclination (degrees)
Orbital Period (minutes)
Azimuth
Elevation
Range (km)
Doppler Factor

Next 0 passes for location: London (51.5072 / 0.1276)

Sorry there are no passes over London.